Regional Weather Roundup
Issued by NWS Cleveland, OH

Home | Current Version | Previous Version | Graphics & Text | Print | Product List | Glossary On
Versions: 1 2 3 4 5 6 7 8 9 10 11 12 13 14 15 16 17 18 19 20 21 22 23 24 25 26 27 28 29 30 31 32 33 34 35 36 37 38 39 40 41 42 43 44 45 46 47 48 49 50
000
ASUS41 KCLE 271102
RWRCLE
OHIO REGIONAL WEATHER ROUNDUP
NATIONAL WEATHER SERVICE CLEVELAND, OH
700 AM EDT FRI MAR 27 2015

NOTE: "FAIR" INDICATES FEW OR NO CLOUDS BELOW 12,000 FEET WITH NO
SIGNIFICANT WEATHER AND/OR OBSTRUCTIONS TO VISIBILITY.

OHZ001>008-015>018-024>027-034-035-043-044-271200-
   NORTHWEST OHIO

CITY           SKY/WX    TMP DP  RH WIND       PRES   REMARKS
DEFIANCE       CLOUDY    29  18  63 N18       30.00R WCI  16
FINDLAY        CLOUDY    32  20  61 N12       29.94R WCI  23
TOLEDO EXPRESS CLOUDY    25  17  72 N14       29.98R WCI  13
TOLEDO EXEC    MOCLDY    28  18  66 NW14      29.98R WCI  17
LIMA           CLOUDY    32  23  69 NW10      29.95R WCI  24
$$

OHZ009>014-019>023-028>033-038-089-271200-
   NORTHEAST OHIO

CITY           SKY/WX    TMP DP  RH WIND       PRES   REMARKS
CLE-HOPKINS    FLURRIES  29  23  78 N14       29.94S WCI  18
CLE-LAKEFRONT  CLOUDY    29  24  82 N13       29.92R WCI  19
CUY CO. ARPT   CLOUDY    30  25  80 N14       29.92  WCI  20
LORAIN-ELYRIA  CLOUDY    30  21  69 N14G21    29.92S WCI  19
ASHTABULA      FLURRIES  28  24  85 N9        29.89S WCI  19
AKRON-CANTON   CLOUDY    32  25  75 NW6       29.87S WCI  26
WOOSTER        MOCLDY    31  25  78 NW13      29.89S WCI  21
MANSFIELD      CLOUDY    29  23  78 N10       29.89S WCI  20
YOUNGSTOWN     FLURRIES  30  27  88 NW14      29.86R WCI  19
$$

OHZ042-051>053-060>062-070>072-077>081-271200-
  SOUTHWEST OHIO

CITY           SKY/WX    TMP DP  RH WIND       PRES   REMARKS
CINC-COVINGTON PTCLDY    33  23  66 N8        29.97R WCI  26
CINC-LUNKEN    MOCLDY    31  24  75 N8        29.99R WCI  23
HAMILTON       CLEAR     28  24  85 NW5       29.99R WCI  23
DAYTON         PTCLDY    29  24  82 NW7       29.96R WCI  22
WRIGHT-PAT AFB   N/A     29  24  81 NW6       29.96R WCI  23
DAYTON GENERAL CLEAR     30  24  78 N5        29.95R WCI  25
WILMINGTON     CLEAR     29  22  75 N7        29.94R WCI  22
$$

OHZ036-037-039>041-045>050-054>059-063>069-073>076-082>088-271200-
  CENTRAL AND SOUTHEAST OHIO

CITY           SKY/WX    TMP DP  RH WIND       PRES   REMARKS
COLUMBUS       MOCLDY    29  23  78 NW7       29.92S WCI  22
OSU AIRPORT    CLEAR     28  22  78 NW8       29.93R WCI  20
BOLTON FIELD   FAIR     N/A N/A N/A W5        29.94S
RICKENBACK AFB FAIR      28  23  80 NW6       29.93S WCI  22
NEWARK         CLEAR     28  22  78 NW6       29.91S WCI  22
MARION         CLOUDY    31  23  72 N13       29.93R WCI  21
LANCASTER      CLEAR     30  23  75 NW5       29.92S WCI  25
ZANESVILLE     MOCLDY    29  22  75 NW6       29.90R WCI  23
NEW PHILLY     CLOUDY    34  26  72 NW7       29.89S WCI  28
$$


USA.gov is the U.S. government's official web portal to all federal, state and local government web resources and services.